Location: Gniazdowice
(50.2124°N, 20.2673°E)
Time: 12:10:22
(UTC+00:00)

Meteor 1-28 Rocket - Pass Details

Date: 05 August 2024
Orbit: 467 x 482 km, 97.5° (Epoch: 15 September)

Event Time Altitude Azimuth Distance (km) Brightness Sun altitude
Exits shadow 00:13:26 - 121° (ESE) 1,981 6.1 -20.1°
Reaches altitude 10° 00:14:19 10° 113° (ESE) 1,686 5.8 -20.1°
Maximum altitude 00:17:02 20° 64° (ENE) 1,174 5.5 -19.9°
Drops below altitude 10° 00:19:47 10° 15° (NNE) 1,692 7.0 -19.7°
Sets 00:22:13 0° 359° (N) 2,576 7.9 -19.6°
